This demonstration page uses our WeatherBlox Daily Observations layout. Learn more.

41.55636, -103.73856

Hourly Observations for September 3, 2017

Temp ( °F °C ) Dew Point ( °F °C ) Humidity (%) Winds ( mph kmh ) Pressure ( in mb ) Visibility ( mi km ) Precip ( " mm )
12:53 am 00:53 Clear 61 16.1 50 10 67 67 ENE 5 7 29.99 1016 7 11.26538 0 0
1:53 am 01:53 Clear 62 16.7 50 10 65 65 E 8 13 29.97 1015 7 11.26538 0 0
2:53 am 02:53 Clear 61 16.1 50 10 67 67 ENE 9 15 29.96 1015 7 11.26538 0 0
3:53 am 03:53 Clear 60 15.6 50 10 70 70 ENE 6 9 29.95 1014 7 11.26538 0 0
4:53 am 04:53 Hazy 56 13.3 49 9.4 77 77 NW 5 7 29.96 1015 6 9.65604 0 0
5:53 am 05:53 Hazy 55 12.8 49 9.4 80 80 undefined N/A 29.96 1015 6 9.65604 0 0
6:53 am 06:53 Hazy 54 12.2 48 8.9 80 80 Calm 29.98 1015 5 8.0467 0 0
7:53 am 07:53 Hazy 62 16.7 50 10 65 65 NNW 6 9 30 1016 5 8.0467 0 0
8:53 am 08:53 Hazy 69 20.6 51 10.6 53 53 WNW 5 7 30 1016 6 9.65604 0 0
9:53 am 09:53 Sunny 78 25.6 47 8.3 33 33 WNW 7 11 29.98 1015 8 12.87472 0 0
10:53 am 10:53 Sunny 85 29.4 46 7.8 26 26 WNW 10 17 29.97 1015 9 14.48406 0 0
11:53 am 11:53 Sunny 90 32.2 46 7.8 22 22 WNW 12 19 29.95 1014 10 16.0934 0 0
12:53 pm 12:53 Sunny 96 35.6 46 7.8 18 18 W 12 19 29.92 1013 10 16.0934 0 0
1:53 pm 13:53 Sunny 98 36.7 38 3.3 12 12 W 10 17 29.9 1013 10 16.0934 0 0
2:53 pm 14:53 Sunny 100 37.8 36 2.2 11 11 WNW 13 20 29.9 1012 10 16.0934 0 0
3:53 pm 15:53 Hazy 98 36.7 38 3.3 12 12 NW 8 13 29.9 1013 4 6.43736 0 0
4:15 pm 16:15 Cloudy with Haze 96 35.6 34 1.1 11 11 N 13 20 29.68 1005 2 3.21868 0 0
4:32 pm 16:32 Cloudy with Haze 96 35.6 37 2.8 13 13 NNE 7 11 29.68 1005 2 3.21868 0 0
4:53 pm 16:53 Cloudy with Haze 97 36.1 34 1.1 11 11 N 12 19 29.91 1013 2.5 4.02335 0 0
5:01 pm 17:01 Cloudy with Haze 96 35.6 36 2.2 12 12 NNW 10 17 29.68 1005 3 4.82802 0 0
5:30 pm 17:30 Cloudy with Haze 91 33 39 4 16 16 NNE 9 15 29.71 1006 2.5 4.02335 0 0
5:53 pm 17:53 Cloudy with Haze 89 31.7 40 4.4 18 18 N 10 17 29.93 1014 1.75 2.816345 0 0
6:12 pm 18:12 Cloudy with Haze 88 31.1 36 2.2 16 16 N 15 24 29.74 1007 2 3.21868 0 0
6:53 pm 18:53 Cloudy with Haze 81 27.2 38 3.3 21 21 NNE 9 15 29.96 1015 2.5 4.02335 0 0
7:35 pm 19:35 Cloudy with Haze 75 23.9 41 5 29 29 NNE 10 17 29.85 1011 4 6.43736 0 0
7:46 pm 19:46 Cloudy with Haze 75 23.9 38 3.3 26 26 NNE 12 19 29.85 1011 4 6.43736 0 0
7:53 pm 19:53 Cloudy with Haze 75 23.9 37 2.8 25 25 NNE 12 19 29.97 1015 3 4.82802 0 0
8:06 pm 20:06 Cloudy with Haze 75 23.9 36 2.2 24 24 NNE 9 15 29.85 1011 3 4.82802 0 0
8:53 pm 20:53 Cloudy with Haze 70 21.1 36 2.2 29 29 undefined N/A 29.99 1016 3 4.82802 0 0
9:11 pm 21:11 Cloudy with Haze 70 21.1 38 3.3 31 31 W 9 15 29.94 1014 2.5 4.02335 0 0
9:25 pm 21:25 Cloudy with Haze 71 21.7 36 2.2 28 28 Calm 29.91 1013 3 4.82802 0 0
9:53 pm 21:53 Cloudy with Haze 65 18.3 40 4.4 40 40 NNW 6 9 30.01 1016 3 4.82802 0 0
10:53 pm 22:53 Cloudy with Haze 67 19.4 38 3.3 35 35 N 8 13 30.01 1016 3 4.82802 0 0
11:08 pm 23:08 Cloudy with Haze 68 20 36 2 30 30 NNW 9 15 29.94 1014 2.5 4.02335 0 0
11:53 pm 23:53 Cloudy with Haze 64 17.8 38 3.3 38 38 Calm 30.01 1016 2.5 4.02335 0 0

Powered by AerisWeather